Theta_e
338 337 335 336 335 334 333 331 331 336 341 344 344 340 336 333 330 331 335 337 335 331 335 342 341 338 332 332 333 336 339 339 343 340 337 337 337 328 324 338 339 332 337
338 338 333 332 332 332 331 329 329 331 333 334 336 336 335 334 333 331 331 334 334 331 340 343 337 337 336 335 336 335 338 339 338 336 332 329 325 325 321 321 323 323 323
339 340 336 331 333 330 329 330 329 329 331 333 333 334 335 335 334 334 332 331 336 339 340 338 337 337 338 337 335 337 337 337 338 339 336 339 339 330 327 333 327 324 323
339 340 338 333 338 334 331 334 335 333 330 330 333 334 334 335 335 333 333 332 333 335 334 333 337 336 336 335 333 332 333 333 335 335 335 337 333 333 328 341 339 332 337
340 340 340 335 339 339 339 338 338 338 337 334 329 332 335 334 338 339 335 332 332 333 333 334 335 337 336 331 327 331 337 331 331 332 331 334 336 331 333 325 333 340 338
337 339 340 339 339 339 340 340 341 340 340 338 336 329 334 335 334 336 338 340 335 336 334 333 336 334 328 332 337 340 342 343 340 339 331 330 329 329 331 335 325 325 324
336 337 338 339 340 340 339 338 339 341 341 339 335 332 338 340 332 337 336 337 337 339 336 333 335 330 332 338 341 342 343 342 339 339 339 336 331 329 335 326 338 324 323
337 336 339 339 338 339 337 334 334 339 341 340 336 338 340 339 335 338 338 340 336 337 338 340 330 330 330 339 342 341 340 338 339 340 341 339 332 326 332 328 323 326 326
336 336 338 339 337 334 333 332 333 337 340 341 340 335 338 339 338 338 338 328 335 340 338 328 325 329 331 340 339 342 339 338 340 341 341 340 331 328 327 326 325 324 330
335 336 335 337 332 331 332 332 331 333 338 341 342 335 340 337 338 337 340 327 326 338 328 324 328 329 332 337 341 343 341 339 340 342 343 340 328 329 333 326 326 323 333
336 336 335 336 332 331 332 332 331 332 336 335 333 332 341 338 339 339 337 333 324 337 334 327 336 328 328 336 340 344 343 342 341 342 344 341 331 327 331 329 327 325 323
335 337 335 335 333 331 333 333 331 330 330 338 336 340 335 337 338 337 335 338 322 327 335 332 329 323 325 334 343 343 343 343 343 342 343 345 337 327 327 326 325 328 325
332 333 335 333 334 331 334 334 332 330 330 329 334 333 334 334 336 335 334 339 325 325 337 331 325 325 334 341 343 340 341 343 345 345 344 344 340 334 327 325 324 325 323
335 333 332 333 333 332 332 335 334 332 330 328 327 332 333 334 334 335 332 334 333 329 329 327 325 331 331 332 333 334 339 342 344 345 344 345 342 338 331 329 325 323 323
344 342 336 334 333 333 331 333 334 335 335 333 328 330 333 334 333 334 332 329 334 327 327 326 328 332 336 334 334 337 339 343 344 345 344 344 342 340 339 338 333 331 329
348 348 344 340 335 332 331 332 333 334 335 336 333 329 331 333 338 342 336 336 333 329 323 335 331 332 335 335 343 342 342 344 344 345 344 343 344 343 343 341 339 338 339
348 348 348 345 339 333 331 331 332 334 334 336 334 336 335 335 344 342 342 341 340 334 327 325 332 333 334 337 342 343 344 344 344 344 344 345 346 344 343 343 343 342 340
348 349 348 348 343 339 332 331 332 333 334 335 338 338 342 340 342 343 343 345 341 337 332 326 328 328 330 331 337 342 342 343 343 344 341 343 344 345 346 344 344 343 343
348 349 349 349 347 344 342 335 333 334 334 334 338 341 342 344 343 342 342 342 344 341 339 339 338 338 337 336 340 341 343 345 345 344 342 340 340 343 343 343 345 345 345
348 349 349 349 348 347 346 344 340 337 339 336 338 342 343 344 345 344 344 342 343 344 342 344 344 343 342 345 344 342 342 342 342 340 342 343 340 341 341 343 343 343 346
349 349 350 350 348 348 347 347 345 341 343 341 339 344 344 345 347 345 344 344 342 345 346 345 344 345 344 344 346 345 344 343 343 342 343 343 344 344 343 343 346 342 343
349 349 350 350 347 348 347 347 346 343 342 343 341 345 345 346 347 346 343 344 346 343 346 347 346 346 345 347 346 346 345 344 343 342 342 343 344 344 343 343 344 345 344
349 349 350 350 349 347 348 348 347 345 344 344 343 343 344 346 347 346 345 344 346 344 344 345 345 346 346 345 344 346 344 344 343 342 342 342 344 344 344 344 344 344 345
351 351 352 352 350 348 348 349 347 347 345 343 343 345 347 346 346 348 347 343 343 344 345 345 345 344 344 346 345 343 343 343 342 341 341 341 341 342 342 342 344 345 345
350 351 351 352 352 351 350 350 349 347 347 345 344 346 348 347 346 347 347 346 346 345 344 342 344 345 346 346 346 343 342 342 343 343 342 340 341 341 344 343 342 344 345
351 352 352 351 351 352 352 350 350 349 347 347 345 346 348 348 347 346 347 346 346 346 346 346 343 343 344 344 344 343 343 341 342 340 339 338 338 339 339 340 339 343 344
Wind_Speed
30 29 26 25 23 22 20 21 23 25 25 24 22 23 23 25 27 27 26 26 26 25 22 18 18 18 17 14 10 9 7 7 9 9 11 11 12 11 13 16 15 15 15
36 30 28 27 25 25 24 22 23 24 24 23 22 23 24 24 24 22 23 24 24 22 17 16 18 16 14 13 10 7 6 9 10 12 12 13 12 13 13 14 14 14 14
34 30 29 28 27 25 25 22 21 21 22 23 22 21 23 22 21 20 21 22 22 20 18 17 15 13 13 12 10 10 12 12 12 12 11 13 13 13 15 14 14 15 16
34 32 30 29 28 26 25 23 22 21 20 20 21 21 20 20 21 21 20 22 20 19 17 15 13 12 14 13 10 12 13 14 13 11 10 12 12 12 13 14 12 13 14
33 32 30 29 28 26 25 23 22 21 21 20 20 21 21 19 19 19 19 20 19 18 15 14 12 14 16 14 15 18 20 19 17 12 8 9 10 11 11 12 13 13 12
32 32 31 29 28 25 24 23 22 21 21 19 19 19 21 19 18 18 17 18 18 17 15 15 17 17 17 19 22 22 17 15 13 11 10 9 7 9 10 10 11 11 11
32 32 31 29 27 26 24 22 23 22 21 19 17 18 18 19 17 18 16 17 18 17 17 16 18 18 21 20 20 18 14 11 11 10 10 7 5 8 9 9 10 9 10
31 32 31 30 28 26 25 23 23 23 22 21 18 19 18 17 17 18 16 17 16 17 17 16 18 20 22 23 21 17 13 12 12 10 8 6 4 5 7 7 8 9 10
33 31 31 30 28 26 25 24 23 24 23 21 19 19 19 18 17 16 15 16 17 17 15 15 19 22 24 25 20 17 12 12 12 10 7 4 5 5 5 6 7 9 9
35 33 31 30 28 26 24 23 23 23 23 21 20 19 19 19 17 15 15 14 17 17 14 18 22 22 25 22 20 17 13 11 10 8 6 4 5 6 5 5 7 8 9
36 34 32 30 28 26 24 22 21 23 23 22 21 21 19 18 17 17 15 15 17 17 16 18 20 21 25 23 20 16 14 10 9 8 6 5 6 6 7 6 7 7 8
41 39 35 32 29 27 25 24 23 23 23 23 21 21 19 17 17 15 16 15 16 17 17 18 20 21 24 25 21 17 14 10 7 4 4 7 6 7 7 7 7 8 8
40 39 39 35 32 30 28 26 24 24 24 23 22 21 20 19 19 18 17 16 16 18 18 18 21 22 25 25 21 16 15 10 7 8 9 10 7 7 7 8 7 8 8
43 39 37 36 35 32 30 28 26 24 23 23 22 22 22 21 20 19 18 18 17 17 17 18 22 22 22 21 19 16 15 12 9 7 14 14 9 6 6 6 7 8 8
42 40 39 37 36 34 32 30 28 26 24 22 21 21 21 21 20 20 19 18 17 16 17 18 21 21 20 20 19 16 17 10 5 3 10 11 9 7 6 6 5 6 7
43 42 40 38 36 35 33 31 29 28 25 24 23 23 23 22 21 19 19 18 17 16 17 18 19 21 19 20 16 14 13 10 5 3 10 12 9 8 6 5 6 7 7
45 43 42 39 37 36 34 32 30 28 26 25 24 24 23 23 21 19 19 17 16 16 16 19 20 22 22 20 17 14 12 12 9 7 9 10 10 10 7 6 6 7 9
43 46 43 40 39 36 36 33 32 31 29 27 26 24 24 22 22 20 19 16 15 16 16 19 20 23 23 22 22 17 14 14 12 10 14 16 15 15 12 9 9 9 10
45 44 44 42 39 37 35 34 33 31 31 30 28 27 26 24 23 23 21 19 18 19 20 20 21 21 20 21 22 20 17 14 14 14 16 17 21 19 16 15 14 12 12
45 43 42 43 41 37 35 34 34 33 32 30 29 28 26 25 24 24 23 22 22 22 23 23 22 22 23 18 20 20 19 19 19 19 18 16 17 21 19 17 19 19 16
46 47 45 44 43 41 39 40 38 38 35 32 32 29 26 26 25 23 25 24 25 26 25 24 23 22 21 18 18 18 21 20 21 22 21 21 21 21 19 20 19 20 21
49 48 47 47 45 45 42 38 38 37 36 34 33 32 29 27 24 25 24 26 26 28 27 26 26 24 23 21 22 23 24 26 29 28 25 25 24 23 24 24 24 23 23
54 52 52 49 47 46 44 40 38 37 36 36 37 34 32 30 28 27 24 24 26 28 28 27 26 27 24 21 23 21 10 17 18 21 25 27 26 27 27 27 27 27 27
41 38 40 47 48 46 45 45 42 42 44 43 41 38 34 33 30 29 27 25 25 27 31 30 28 28 27 25 24 26 28 16 8 7 12 15 21 25 26 26 27 29 28
33 37 39 40 43 44 45 45 43 41 42 42 42 38 35 33 31 31 30 27 26 26 28 31 32 31 30 28 25 27 27 30 29 27 23 24 20 18 18 18 19 24 26
20 25 31 38 40 41 42 44 45 44 42 43 42 41 37 35 34 33 31 30 28 29 29 31 31 32 31 31 30 30 28 27 29 27 32 33 32 29 26 27 26 21 18
Wind_Direction
170 165 158 156 155 153 148 140 138 137 139 140 137 133 133 134 133 135 136 144 146 142 135 133 140 142 140 141 137 130 109 114 134 128 122 125 130 128 128 127 130 130 128
162 169 162 159 158 159 156 152 145 140 138 138 138 136 137 141 142 147 141 144 150 147 145 138 136 137 140 140 143 148 138 126 128 120 120 124 122 122 129 129 128 130 128
166 171 166 162 162 160 156 150 143 141 140 140 140 141 139 143 147 153 158 155 153 153 145 139 142 144 148 146 146 137 133 133 130 125 125 129 121 122 127 125 125 127 127
168 173 169 167 164 160 156 154 150 147 146 147 147 146 147 148 151 152 158 160 162 160 153 147 146 154 154 156 151 150 138 135 135 128 130 137 131 132 133 131 128 126 125
171 175 174 172 169 165 162 162 158 156 154 155 155 156 154 155 153 152 160 161 168 166 163 156 147 150 150 153 147 140 128 122 125 121 128 140 142 139 137 147 144 137 137
173 175 176 176 174 171 169 168 168 168 164 162 159 162 157 156 157 153 162 164 166 167 162 156 150 147 147 144 139 141 140 134 128 119 116 132 141 145 146 144 146 149 149
176 175 176 178 178 179 178 176 176 175 170 168 164 161 161 156 156 156 155 163 166 166 161 155 151 152 150 149 147 147 143 139 138 123 116 103 130 150 152 157 158 151 154
182 176 176 179 180 181 184 183 180 178 177 174 171 164 168 163 161 160 157 158 161 165 165 160 158 159 157 151 149 145 144 145 138 135 124 107 132 152 166 163 171 169 163
184 179 178 179 181 183 184 183 182 181 181 174 176 172 171 170 168 164 165 168 164 161 170 167 163 166 162 159 155 150 146 146 143 139 143 140 162 165 185 185 181 174 167
186 183 183 183 184 183 183 182 181 182 180 176 179 178 176 176 173 170 170 172 172 169 165 160 159 165 167 164 161 159 163 157 158 164 163 179 183 186 196 192 191 189 185
188 186 188 188 188 186 185 184 183 180 181 183 182 180 181 180 178 178 176 173 176 170 165 160 163 168 171 172 174 174 171 179 185 185 180 202 222 206 209 211 205 210 204
190 189 190 192 190 190 189 189 187 184 185 181 183 184 183 181 181 177 182 180 178 177 171 166 168 167 172 175 180 179 172 178 181 191 227 230 245 232 222 218 219 219 218
189 192 192 192 192 192 194 195 191 190 188 187 187 187 184 182 183 185 183 182 181 180 177 173 168 170 174 177 185 188 186 184 201 246 250 225 235 241 228 225 227 230 229
191 193 195 195 194 194 198 199 198 194 192 191 190 188 188 187 187 185 186 188 184 184 185 179 175 176 179 185 191 195 191 195 216 252 232 217 220 225 219 224 225 236 242
196 196 197 199 198 198 199 203 202 201 198 195 194 192 194 192 190 188 186 186 187 186 185 182 182 184 182 185 185 182 188 204 198 235 187 196 212 223 216 217 229 234 247
203 203 201 202 203 202 203 205 208 206 203 200 200 199 198 198 197 196 189 189 190 190 189 188 186 191 191 185 186 184 197 196 188 195 205 203 224 228 237 224 231 248 248
207 205 204 205 205 207 206 208 210 213 210 207 206 203 203 200 201 201 198 203 202 199 196 194 192 194 195 198 198 197 206 209 218 233 220 221 230 230 242 263 248 255 260
211 207 205 205 206 208 208 208 212 214 214 214 213 210 210 210 208 206 206 205 205 200 197 194 196 197 200 206 207 208 215 221 225 244 246 243 247 244 247 252 263 269 269
211 212 210 208 207 208 209 209 212 214 215 215 215 213 211 211 213 215 214 209 207 202 196 192 194 197 201 206 211 217 222 229 231 242 251 251 248 252 254 255 257 266 269
213 214 215 212 210 208 210 213 213 214 215 214 214 212 212 212 214 218 219 215 212 210 207 208 211 214 213 224 223 228 232 238 241 245 246 247 247 248 256 257 258 256 262
217 214 216 215 212 208 209 211 212 212 212 213 213 211 210 211 219 219 219 218 216 216 214 216 220 221 225 222 231 238 241 245 248 247 249 244 246 246 254 253 261 260 262
221 219 216 217 215 211 210 211 215 213 215 216 213 215 212 217 223 221 220 219 221 222 222 224 227 228 233 235 237 244 252 257 257 254 249 250 247 248 253 256 260 260 259
224 221 219 217 216 215 214 212 214 216 219 217 215 215 217 219 223 224 227 223 222 223 226 228 232 229 232 237 239 236 236 245 262 265 257 252 256 251 254 258 262 261 257
219 223 225 224 220 218 218 217 214 215 215 218 218 217 218 219 223 226 231 230 229 230 231 233 234 236 236 238 243 242 240 245 249 261 259 256 255 257 258 259 261 258 259
219 225 224 226 226 226 227 228 223 221 223 223 223 222 222 222 226 230 230 234 235 236 244 242 238 238 240 247 246 246 241 245 250 257 265 261 260 258 259 265 269 261 258
212 220 217 220 227 229 231 229 234 233 227 225 225 223 224 225 228 230 235 236 241 243 250 247 244 243 244 248 250 245 244 247 250 256 262 269 270 271 270 268 267 265 263